Greenville, SC

3:27 AM EST on November 21, 2017 (GMT -0500)
Donaldson Center

Weather History for KGYH - April, 2014

Change the Weather History Date:

Monday, April 14, 2014

  Actual Average (KGMU) Record (KGMU)
Temperature  
Mean Temperature 66 °F -  
Max Temperature 73 °F 70 °F 88 °F (2006)
Min Temperature 60 °F 49 °F 35 °F (1997)
Cooling Degree Days 2    
Growing Degree Days 16 (Base 50)    
Moisture  
Dew Point 62 °F    
Average Humidity 91    
Maximum Humidity 100    
Minimum Humidity 64    
Precipitation  
Precipitation 0.07 in - - ()
Sea Level Pressure  
Sea Level Pressure 29.97 in    
Wind  
Wind Speed 6 mph (South)    
Max Wind Speed 13 mph    
Max Gust Speed -    
Visibility 9 miles    
Events Rain    
Averages and records for this station are not official NWS values.
T = Trace of Precipitation, MM = Missing Value Source: NWS Daily Summary

Daily Weather History Graph

Daily Weather History Graph

Search for Another Location

Airport or City:

Trip Planner

Search our weather history database for the weather conditions in past years. The results will help you decide how hot, cold, wet, or windy it might be!

Date:

Astronomy

Apr. 14, 2014 Rise Set
Actual Time 6:59 AM EDT 8:00 PM EDT
Civil Twilight 6:33 AM EDT 8:26 PM EDT
Nautical Twilight 6:02 AM EDT 8:57 PM EDT
Astronomical Twilight 5:30 AM EDT 9:29 PM EDT
Moon 7:39 PM EDT (4/14) 6:28 AM EDT (4/14)
Length of Visible Light 13h 53m
Length of Day
13h 01m
Full, 100% of the Moon is Illuminated
Apr 14
Full
Apr 15
Full
Apr 22
Last Quarter
Apr 29
New
May 6
First Quarter

Hourly Weather History & Observations

Time (EDT) Temp. Dew Point Humidity Pressure Visibility Wind Dir Wind Speed Gust Speed Precip Events Conditions
12:15 AM 68.0 °F 55.4 °F 64% 30.07 in 10.0 mi South 9.2 mph - N/A   Clear
12:35 AM 66.2 °F 55.4 °F 68% 30.07 in 10.0 mi South 10.4 mph - N/A   Clear
12:55 AM 66.2 °F 55.4 °F 68% 30.06 in 10.0 mi South 8.1 mph - N/A   Clear
1:15 AM 66.2 °F 55.4 °F 68% 30.06 in 10.0 mi South 12.7 mph - N/A   Clear
1:35 AM 64.4 °F 57.2 °F 77% 30.05 in 10.0 mi South 8.1 mph - N/A   Clear
2:35 AM 64.4 °F 59.0 °F 83% 30.05 in 10.0 mi South 8.1 mph - N/A   Clear
2:55 AM 64.4 °F 59.0 °F 83% 30.05 in 10.0 mi South 6.9 mph - N/A   Clear
3:15 AM 64.4 °F 59.0 °F 83% 30.05 in 10.0 mi South 6.9 mph - N/A   Clear
3:35 AM 62.6 °F 59.0 °F 88% 30.04 in 10.0 mi SSW 5.8 mph - N/A   Clear
3:55 AM 62.6 °F 59.0 °F 88% 30.04 in 10.0 mi SSW 4.6 mph - N/A   Clear
4:15 AM 62.6 °F 59.0 °F 88% 30.03 in 10.0 mi South 4.6 mph - N/A   Clear
4:35 AM 62.6 °F 59.0 °F 88% 30.02 in 10.0 mi South 3.5 mph - N/A   Scattered Clouds
4:55 AM 62.6 °F 59.0 °F 88% 30.01 in 10.0 mi South 3.5 mph - N/A   Clear
5:15 AM 62.6 °F 59.0 °F 88% 30.01 in 10.0 mi South 4.6 mph - N/A   Clear
5:35 AM 62.6 °F 59.0 °F 88% 30.01 in 10.0 mi South 4.6 mph - N/A   Scattered Clouds
5:55 AM 62.6 °F 59.0 °F 88% 30.01 in 10.0 mi South 4.6 mph - N/A   Clear
6:15 AM 60.8 °F 60.8 °F 100% 30.02 in 10.0 mi Calm Calm - N/A   Mostly Cloudy
6:35 AM 60.8 °F 60.8 °F 100% 30.01 in 10.0 mi Calm Calm - N/A   Overcast
6:47 AM 62.6 °F 60.8 °F 94% 30.01 in 10.0 mi South 4.6 mph - N/A   Overcast
7:47 AM 62.6 °F 60.8 °F 94% 30.01 in 10.0 mi Calm Calm - N/A   Scattered Clouds
8:47 AM 62.6 °F 62.6 °F 100% 30.03 in 10.0 mi South 3.5 mph - N/A   Overcast
9:47 AM 66.2 °F 62.6 °F 88% 30.03 in 10.0 mi South 3.5 mph - N/A   Overcast
10:47 AM 66.2 °F 64.4 °F 94% 30.04 in 10.0 mi South 3.5 mph - N/A   Overcast
11:47 AM 66.2 °F 66.2 °F 100% 30.03 in 10.0 mi South 3.5 mph - N/A   Overcast
12:47 PM 69.8 °F 64.4 °F 83% 30.00 in 10.0 mi South 3.5 mph - N/A   Overcast
2:47 PM 73.4 °F 62.6 °F 69% 29.94 in 10.0 mi SSW 11.5 mph - N/A   Mostly Cloudy
3:47 PM 66.2 °F 66.2 °F 100% 29.93 in 2.0 mi West 11.5 mph - N/A Rain Heavy Rain
4:06 PM 66.2 °F 66.2 °F 100% 29.92 in 10.0 mi West 3.5 mph - N/A Rain Light Rain
4:47 PM 66.2 °F 66.2 °F 100% 29.91 in 10.0 mi West 3.5 mph - N/A   Mostly Cloudy
5:47 PM 66.2 °F 66.2 °F 100% 29.88 in 10.0 mi West 5.8 mph - N/A Rain Light Rain
6:47 PM 66.2 °F 66.2 °F 100% 29.87 in 10.0 mi WSW 3.5 mph - N/A   Overcast
7:47 PM 66.2 °F 66.2 °F 100% 29.86 in 10.0 mi Calm Calm - N/A   Overcast
8:15 PM 64.4 °F 64.4 °F 100% 29.85 in 5.0 mi Calm Calm - N/A   Drizzle
8:35 PM 64.4 °F 64.4 °F 100% 29.84 in 7.0 mi Calm Calm - 0.01 in   Drizzle
8:47 PM 66.2 °F 66.2 °F 100% 29.84 in 10.0 mi Calm Calm - N/A   Overcast
8:55 PM 64.4 °F 64.4 °F 100% 29.85 in 4.0 mi Calm Calm - 0.03 in Rain Rain
9:55 PM 64.4 °F 64.4 °F 100% 29.85 in 7.0 mi Calm Calm - 0.04 in   Overcast
10:35 PM 64.4 °F 64.4 °F 100% 29.83 in 4.0 mi Calm Calm - N/A   Overcast
10:55 PM 64.4 °F 64.4 °F 100% 29.83 in 5.0 mi Calm Calm - N/A   Overcast
11:15 PM 62.6 °F 62.6 °F 100% 29.82 in 3.0 mi Calm Calm - N/A   Overcast
11:35 PM 62.6 °F 62.6 °F 100% 29.81 in 4.0 mi SSW 3.5 mph - N/A   Overcast